Location: Czekanka
(50.4925°N, 19.2643°E)
Time: 07:02:42
(UTC+00:00)

SL-16 R/B - Pass Details

Date: 21 September 2024
Orbit: 842 x 846 km, 71.0° (Epoch: 09 October)

Event Time Altitude Azimuth Distance (km) Brightness Sun altitude
Rises 20:20:06 0° 260° (W) 3,402 5.7 -31.6°
Reaches altitude 10° 20:23:13 10° 277° (W) 2,469 5.1 -32.0°
Maximum altitude 20:27:20 20° 324° (NW) 1,857 4.6 -32.4°
Drops below altitude 10° 20:31:28 10° 11° (N) 2,475 5.0 -32.8°
Sets 20:34:36 0° 28° (NNE) 3,412 5.6 -33.1°
